Home > Weather > Miami > Past weeks

Flag for USA Weather for the Past 2 Weeks in Miami, Florida, USA

Now
79 °F

Sunny.


Feels Like: 79 °F
Forecast: 69 / 81 °F
Wind: 9 mph from North

Location: Miami International Airport

Current Time: May 5, 2016 at 2:45:18 PM

Latest Report: May 5, 2016 at 1:53 PM


Visibility: 10 mi

Pressure: 29.81 "Hg

Humidity: 38%

Dew Point: 51 °F

Location of MiamiLocation

Historic Weather in Miami — Graph

°F

Miami Temperature Yesterday

Maximum temperature yesterday: 83 °F (at 10:53 AM)
Minimum temperature yesterday: 71 °F (at 2:53 PM)
Average temperature yesterday: 75 °F

High & Low Weather Summary for the Past Weeks

 TemperatureHumidityPressure
High88 °F (Apr 23, 3:53 PM)100% (May 4, 6:53 AM)30.09 "Hg (May 4, 6:53 AM)
Low68 °F (Apr 24, 6:53 AM)36% (May 5, 12:53 PM)29.71 "Hg (May 4, 9:53 PM)
Average78 °F68%29.96 "Hg
* Reported Apr 20 1:53 PM — May 5 1:53 PM, Miami, Weather by CustomWeather, © 2016

Note: Actual official high and low records may vary slightly from our data, if they occured in-between our weather recording intervals... More about our weather records

Advertising

Miami Weather History for the Previous 24 Hours

Scroll right to see more
 ConditionsComfort  
Time TempWeatherWind HumidityBarometerVisibility
1:53 PM
Thu, May 5
79 °FSunny.9 mph38%29.81 "Hg10 mi
12:53 PM78 °FSunny.14 mph36%29.82 "Hg10 mi
11:53 AM77 °FPassing clouds.14 mph42%29.83 "Hg10 mi
10:53 AM75 °FPassing clouds.9 mph52%29.83 "Hg10 mi
9:53 AM73 °FSunny.15 mph55%29.83 "Hg10 mi
8:53 AM71 °FSunny.10 mph68%29.81 "Hg10 mi
7:53 AM69 °FPassing clouds.10 mph79%29.80 "Hg10 mi
6:53 AM68 °FPassing clouds.9 mph78%29.78 "Hg10 mi
5:53 AM68 °FClear.12 mph78%29.76 "Hg10 mi
4:53 AM69 °FClear.10 mph81%29.74 "Hg10 mi
3:53 AM69 °FClear.10 mph84%29.74 "Hg10 mi
2:53 AM70 °FPassing clouds.8 mph87%29.73 "Hg10 mi
1:53 AM72 °FClear.9 mph84%29.74 "Hg10 mi
12:53 AM73 °FOvercast.10 mph94%29.73 "Hg10 mi
12:00 AM73 °FMostly cloudy.10 mph94%29.74 "Hg7 mi
10:53 PM
Wed, May 4
72 °FRain. Fog.5 mph91%29.73 "Hg4 mi
9:53 PM73 °FLight rain. Overcast.7 mph88%29.71 "Hg10 mi
8:53 PM73 °FRain. Fog.13 mph94%29.74 "Hg5 mi
7:53 PM74 °FRain. Fog.8 mph97%29.76 "Hg5 mi
6:53 PM74 °FLight rain. Mostly cloudy.No wind97%29.76 "Hg10 mi
5:53 PM75 °FMostly cloudy.3 mph85%29.75 "Hg10 mi
4:53 PM75 °FCloudy.7 mph90%29.75 "Hg10 mi
3:53 PM73 °FThunderstorms. Cloudy.7 mph94%29.79 "Hg7 mi
2:53 PM71 °FThunderstorms. Fog.6 mph96%29.81 "Hg3 mi
2:00 PM72 °FStrong thunderstorms. Fog.6 mph93%29.83 "Hg1 mi
Weather by CustomWeather, © 2016

See weather overviewHow to use our weather pages